START_TIME,STEP,MOV.,AL01,t_acc.,AL02,t_acc.,E37,t_acc.,H21,t_acc.
1979-08-05 00:00:32.930 ,0,0,2.,24.0,0.,24.0,0.,24.0,0.,24.0
1979-08-05 00:00:56.930 ,1,1,0.,24.0,0.,24.0,0.,24.0,0.,24.0
1979-08-05 00:01:20.930 ,1,0,2.,24.0,0.,24.0,0.,24.0,0.,24.0
1979-08-05 00:01:44.930 ,2,1,0.,24.0,1.,24.0,0.,24.0,0.,24.0
1979-08-05 00:02:08.930 ,2,0,0.,24.0,0.,24.0,1.,24.0,0.,24.0
1979-08-05 00:02:32.930 ,3,1,0.,24.0,0.,24.0,0.,24.0,0.,24.0
1979-08-05 00:02:56.930 ,3,0,1.,24.0,0.,24.0,2.,24.0,0.,24.0
1979-08-05 00:03:20.930 ,4,1,0.,24.0,0.,24.0,0.,24.0,0.,24.0
1979-08-05 00:03:44.930 ,4,0,0.,24.0,0.,24.0,3.,24.0,0.,24.0
1979-08-05 00:04:08.930 ,5,1,1.,24.0,0.,24.0,0.,24.0,0.,24.0
1979-08-05 00:04:32.930 ,5,0,0.,24.0,0.,24.0,1.,24.0,0.,24.0
1979-08-05 00:04:56.930 ,6,1,0.,24.0,0.,24.0,1.,24.0,0.,24.0
1979-08-05 00:05:20.930 ,6,0,1.,24.0,1.,24.0,0.,24.0,0.,24.0
1979-08-05 00:05:44.930 ,7,1,8.,24.0,1.,24.0,0.,24.0,0.,24.0
1979-08-05 00:06:08.930 ,7,0,37.,24.0,0.,24.0,0.,24.0,0.,24.0
1979-08-05 00:06:32.930 ,7,1,23.,24.0,0.,24.0,1.,24.0,0.,24.0
1979-08-05 00:06:56.930 ,7,0,36.,24.0,0.,24.0,0.,24.0,0.,24.0
1979-08-05 00:07:20.930 ,6,1,27.,24.0,1.,24.0,0.,24.0,0.,24.0
1979-08-05 00:07:44.930 ,6,0,1.,24.0,1.,24.0,0.,24.0,0.,24.0
1979-08-05 00:08:08.930 ,5,1,0.,24.0,0.,24.0,0.,24.0,0.,24.0
1979-08-05 00:08:32.930 ,5,0,0.,24.0,0.,24.0,0.,24.0,0.,24.0
1979-08-05 00:08:56.930 ,4,1,1.,24.0,0.,24.0,0.,24.0,0.,24.0
1979-08-05 00:09:20.930 ,4,0,0.,24.0,0.,24.0,0.,24.0,0.,24.0
1979-08-05 00:09:44.930 ,3,1,0.,24.0,0.,24.0,0.,24.0,0.,24.0
1979-08-05 00:10:08.930 ,3,0,0.,24.0,0.,24.0,1.,24.0,0.,24.0
1979-08-05 00:10:32.930 ,2,1,0.,24.0,0.,24.0,0.,24.0,0.,24.0
1979-08-05 00:10:56.930 ,2,0,0.,24.0,1.,24.0,0.,24.0,0.,24.0
1979-08-05 00:11:20.930 ,1,1,1.,24.0,1.,24.0,1.,24.0,0.,24.0
1979-08-05 00:11:44.930 ,1,0,1.,24.0,2.,24.0,1.,24.0,0.,24.0
1979-08-05 00:12:08.930 ,0,1,1.,24.0,0.,24.0,0.,24.0,0.,24.0
1979-08-05 00:12:32.930 ,0,0,0.,24.0,2.,24.0,0.,24.0,0.,24.0
1979-08-05 00:12:56.930 ,0,1,0.,24.0,1.,24.0,0.,24.0,0.,24.0
1979-08-05 00:13:20.930 ,0,0,0.,24.0,1.,24.0,0.,24.0,0.,24.0
1979-08-05 00:13:44.930 ,1,1,1.,24.0,2.,24.0,0.,24.0,0.,24.0
1979-08-05 00:14:08.930 ,1,0,1.,24.0,0.,24.0,0.,24.0,0.,24.0
1979-08-05 00:14:32.930 ,2,1,0.,24.0,0.,24.0,0.,24.0,0.,24.0
1979-08-05 00:14:56.930 ,2,0,0.,24.0,0.,24.0,1.,24.0,0.,24.0
1979-08-05 00:15:20.930 ,3,1,0.,24.0,0.,24.0,0.,24.0,0.,24.0
1979-08-05 00:15:44.930 ,3,0,0.,24.0,0.,24.0,0.,24.0,0.,24.0
1979-08-05 00:16:08.930 ,4,1,0.,24.0,0.,24.0,0.,24.0,0.,24.0
1979-08-05 00:16:32.930 ,4,0,0.,24.0,0.,24.0,0.,24.0,0.,24.0
1979-08-05 00:16:56.930 ,5,1,0.,24.0,0.,24.0,0.,24.0,0.,24.0
1979-08-05 00:17:20.930 ,5,0,0.,24.0,0.,24.0,0.,24.0,0.,24.0
1979-08-05 00:17:44.930 ,6,1,0.,24.0,0.,24.0,0.,24.0,0.,24.0
1979-08-05 00:18:08.930 ,6,0,1.,24.0,1.,24.0,0.,24.0,0.,24.0
1979-08-05 00:18:32.930 ,7,0,6.,24.0,0.,24.0,0.,24.0,0.,24.0
1979-08-05 00:18:56.930 ,7,0,25.,24.0,0.,24.0,2.,24.0,0.,24.0
1979-08-05 00:19:20.930 ,5,1,19.,24.0,0.,24.0,1.,24.0,0.,24.0
1979-08-05 00:19:44.930 ,1,1,0.,24.0,0.,24.0,1.,24.0,0.,24.0
1979-08-05 00:20:08.930 ,2,1,3.,24.0,0.,24.0,1.,24.0,0.,24.0
1979-08-05 00:20:32.930 ,6,1,0.,24.0,0.,24.0,1.,24.0,0.,24.0
1979-08-05 00:20:56.930 ,5,1,19.,24.0,0.,24.0,1.,24.0,0.,24.0
1979-08-05 00:21:20.930 ,1,1,0.,24.0,0.,24.0,0.,24.0,0.,24.0
1979-08-05 00:21:44.930 ,2,1,4.,24.0,2.,24.0,2.,24.0,0.,24.0
1979-08-05 00:22:08.930 ,6,1,0.,24.0,0.,24.0,1.,24.0,0.,24.0
1979-08-05 00:22:32.930 ,5,1,16.,24.0,0.,24.0,0.,24.0,0.,24.0
1979-08-05 00:22:56.930 ,1,1,1.,24.0,0.,24.0,1.,24.0,0.,24.0
1979-08-05 00:23:20.930 ,2,1,2.,24.0,0.,24.0,0.,24.0,0.,24.0
1979-08-05 00:23:44.930 ,6,1,0.,24.0,0.,24.0,2.,24.0,0.,24.0
1979-08-05 00:24:08.930 ,5,1,18.,24.0,0.,24.0,0.,24.0,0.,24.0
1979-08-05 00:24:32.930 ,1,1,0.,24.0,0.,24.0,0.,24.0,0.,24.0
1979-08-05 00:24:56.930 ,2,1,1.,24.0,1.,24.0,1.,24.0,0.,24.0
1979-08-05 00:25:20.930 ,6,1,0.,24.0,0.,24.0,0.,24.0,0.,24.0
1979-08-05 00:25:44.930 ,5,1,11.,24.0,0.,24.0,2.,24.0,0.,24.0
1979-08-05 00:26:08.930 ,1,1,0.,24.0,0.,24.0,0.,24.0,0.,24.0
1979-08-05 00:26:32.930 ,2,1,2.,24.0,2.,24.0,1.,24.0,0.,24.0
1979-08-05 00:26:56.930 ,6,1,0.,24.0,0.,24.0,0.,24.0,0.,24.0
1979-08-05 00:27:20.930 ,5,1,12.,24.0,1.,24.0,3.,24.0,0.,24.0
1979-08-05 00:27:44.930 ,1,1,0.,24.0,0.,24.0,0.,24.0,0.,24.0
1979-08-05 00:28:08.930 ,2,1,2.,24.0,0.,24.0,0.,24.0,0.,24.0
1979-08-05 00:28:32.930 ,6,1,0.,24.0,0.,24.0,4.,24.0,0.,24.0
1979-08-05 00:28:56.930 ,5,1,19.,24.0,0.,24.0,1.,24.0,0.,24.0
1979-08-05 00:29:20.930 ,1,1,1.,24.0,0.,24.0,1.,24.0,0.,24.0
1979-08-05 00:29:44.930 ,0,0,3.,24.0,1.,24.0,2.,24.0,0.,24.0
1979-08-05 00:30:08.930 ,0,0,0.,24.0,0.,24.0,0.,24.0,0.,24.0
1979-08-05 00:30:32.930 ,5,1,13.,24.0,0.,24.0,2.,24.0,0.,24.0
1979-08-05 00:30:56.930 ,5,0,0.,24.0,0.,24.0,1.,24.0,0.,24.0
1979-08-05 00:31:20.930 ,4,1,0.,24.0,0.,24.0,4.,24.0,0.,24.0
1979-08-05 00:31:44.930 ,4,0,0.,24.0,0.,24.0,1.,24.0,0.,24.0
1979-08-05 00:32:08.930 ,3,1,0.,24.0,0.,24.0,1.,24.0,0.,24.0
1979-08-05 00:32:32.930 ,3,0,0.,24.0,2.,24.0,1.,24.0,0.,24.0
1979-08-05 00:32:56.930 ,2,1,0.,24.0,0.,24.0,1.,24.0,0.,24.0
1979-08-05 00:33:20.930 ,2,0,0.,24.0,0.,24.0,1.,24.0,0.,24.0
1979-08-05 00:33:44.930 ,1,1,1.,24.0,0.,24.0,0.,24.0,0.,24.0
1979-08-05 00:34:08.930 ,1,0,3.,24.0,1.,24.0,3.,24.0,0.,24.0
1979-08-05 00:34:32.930 ,0,1,0.,24.0,0.,24.0,1.,24.0,0.,24.0
1979-08-05 00:34:56.930 ,0,0,0.,24.0,1.,24.0,3.,24.0,0.,24.0
1979-08-05 00:35:20.930 ,0,1,4.,24.0,3.,24.0,2.,24.0,0.,24.0
1979-08-05 00:35:44.930 ,0,0,3.,24.0,1.,24.0,2.,24.0,0.,24.0
1979-08-05 00:36:08.930 ,1,1,2.,24.0,2.,24.0,1.,24.0,0.,24.0
1979-08-05 00:36:32.930 ,1,0,1.,24.0,0.,24.0,2.,24.0,0.,24.0
1979-08-05 00:36:56.930 ,2,1,4.,24.0,0.,24.0,0.,24.0,0.,24.0
1979-08-05 00:37:20.930 ,2,0,0.,24.0,0.,24.0,0.,24.0,0.,24.0
1979-08-05 00:37:44.930 ,3,1,0.,24.0,0.,24.0,1.,24.0,0.,24.0
1979-08-05 00:38:08.930 ,3,0,0.,24.0,0.,24.0,1.,24.0,0.,24.0
1979-08-05 00:38:32.930 ,4,1,0.,24.0,0.,24.0,0.,24.0,0.,24.0
1979-08-05 00:38:56.930 ,4,0,0.,24.0,0.,24.0,2.,24.0,0.,24.0
1979-08-05 00:39:20.930 ,5,1,0.,24.0,0.,24.0,0.,24.0,0.,24.0
1979-08-05 00:39:44.930 ,5,0,0.,24.0,0.,24.0,1.,24.0,0.,24.0
1979-08-05 00:40:08.930 ,6,1,0.,24.0,0.,24.0,3.,24.0,0.,24.0
1979-08-05 00:40:32.930 ,6,0,0.,24.0,0.,24.0,2.,24.0,0.,24.0
1979-08-05 00:40:56.930 ,7,1,14.,24.0,1.,24.0,1.,24.0,0.,24.0
1979-08-05 00:41:20.930 ,7,0,29.,24.0,0.,24.0,3.,24.0,0.,24.0
1979-08-05 00:41:44.930 ,7,1,35.,24.0,0.,24.0,1.,24.0,0.,24.0
1979-08-05 00:42:08.930 ,7,0,36.,24.0,0.,24.0,0.,24.0,0.,24.0
1979-08-05 00:42:32.930 ,6,1,15.,24.0,0.,24.0,3.,24.0,0.,24.0
1979-08-05 00:42:56.930 ,6,0,1.,24.0,0.,24.0,2.,24.0,0.,24.0
1979-08-05 00:43:20.930 ,5,1,0.,24.0,0.,24.0,4.,24.0,0.,24.0
1979-08-05 00:43:44.930 ,5,0,0.,24.0,0.,24.0,7.,24.0,0.,24.0
1979-08-05 00:44:08.930 ,4,1,0.,24.0,0.,24.0,5.,24.0,0.,24.0
1979-08-05 00:44:32.930 ,4,0,0.,24.0,0.,24.0,3.,24.0,0.,24.0
1979-08-05 00:44:56.930 ,3,1,0.,24.0,0.,24.0,3.,24.0,0.,24.0
1979-08-05 00:45:20.930 ,3,0,0.,24.0,0.,24.0,2.,24.0,0.,24.0
1979-08-05 00:45:44.930 ,2,1,0.,24.0,0.,24.0,3.,24.0,0.,24.0
1979-08-05 00:46:08.930 ,2,0,0.,24.0,0.,24.0,4.,24.0,0.,24.0
1979-08-05 00:46:32.930 ,1,1,1.,24.0,0.,24.0,3.,24.0,0.,24.0
1979-08-05 00:46:56.930 ,1,0,0.,24.0,1.,24.0,2.,24.0,0.,24.0
1979-08-05 00:47:20.930 ,0,1,1.,24.0,0.,24.0,1.,24.0,0.,24.0
1979-08-05 00:47:44.930 ,0,0,4.,24.0,0.,24.0,5.,24.0,0.,24.0
1979-08-05 00:48:08.930 ,0,1,5.,24.0,2.,24.0,3.,24.0,0.,24.0
1979-08-05 00:48:32.930 ,0,0,1.,24.0,2.,24.0,4.,24.0,0.,24.0
1979-08-05 00:48:56.930 ,1,1,1.,24.0,0.,24.0,5.,24.0,0.,24.0
1979-08-05 00:49:20.930 ,1,0,0.,24.0,1.,24.0,1.,24.0,0.,24.0
1979-08-05 00:49:44.930 ,2,1,2.,24.0,0.,24.0,3.,24.0,0.,24.0
1979-08-05 00:50:08.930 ,2,0,1.,24.0,0.,24.0,3.,24.0,0.,24.0
1979-08-05 00:50:32.930 ,3,1,0.,24.0,0.,24.0,4.,24.0,0.,24.0
1979-08-05 00:50:56.930 ,3,0,0.,24.0,0.,24.0,4.,24.0,0.,24.0
1979-08-05 00:51:20.930 ,4,1,0.,24.0,0.,24.0,4.,24.0,0.,24.0
1979-08-05 00:51:44.930 ,4,0,0.,24.0,0.,24.0,2.,24.0,0.,24.0
1979-08-05 00:52:08.930 ,5,1,0.,24.0,1.,24.0,1.,24.0,0.,24.0
1979-08-05 00:52:32.930 ,5,0,0.,24.0,0.,24.0,1.,24.0,0.,24.0
1979-08-05 00:52:56.930 ,6,1,0.,24.0,0.,24.0,1.,24.0,0.,24.0
1979-08-05 00:53:20.930 ,6,0,1.,24.0,0.,24.0,1.,24.0,0.,24.0
1979-08-05 00:53:44.930 ,7,1,9.,24.0,0.,24.0,0.,24.0,0.,24.0
1979-08-05 00:54:08.930 ,7,0,26.,24.0,0.,24.0,0.,24.0,0.,24.0
1979-08-05 00:54:32.930 ,7,1,34.,24.0,0.,24.0,1.,24.0,0.,24.0
1979-08-05 00:54:56.930 ,7,0,36.,24.0,0.,24.0,1.,24.0,0.,24.0
1979-08-05 00:55:20.930 ,6,1,24.,24.0,0.,24.0,0.,24.0,0.,24.0
1979-08-05 00:55:44.930 ,6,0,0.,24.0,0.,24.0,3.,24.0,0.,24.0
1979-08-05 00:56:08.930 ,5,1,0.,24.0,0.,24.0,1.,24.0,0.,24.0
1979-08-05 00:56:32.930 ,5,0,0.,24.0,0.,24.0,4.,24.0,0.,24.0
1979-08-05 00:56:56.930 ,4,1,1.,24.0,0.,24.0,2.,24.0,0.,24.0
1979-08-05 00:57:20.930 ,4,0,0.,24.0,0.,24.0,2.,24.0,0.,24.0
1979-08-05 00:57:44.930 ,3,1,0.,24.0,0.,24.0,2.,24.0,0.,24.0
1979-08-05 00:58:08.930 ,3,0,0.,24.0,0.,24.0,2.,24.0,0.,24.0
1979-08-05 00:58:32.930 ,2,1,0.,24.0,0.,24.0,1.,24.0,0.,24.0
1979-08-05 00:58:56.930 ,2,0,0.,24.0,1.,24.0,0.,24.0,0.,24.0
1979-08-05 00:59:20.930 ,1,1,2.,24.0,1.,24.0,2.,24.0,0.,24.0
1979-08-05 00:59:44.930 ,1,0,1.,24.0,1.,24.0,3.,24.0,0.,24.0
1979-08-05 01:00:08.930 ,0,1,2.,24.0,2.,24.0,1.,24.0,0.,24.0
1979-08-05 01:00:32.930 ,0,0,4.,24.0,0.,24.0,3.,24.0,0.,24.0
1979-08-05 01:00:56.930 ,0,1,2.,24.0,1.,24.0,5.,24.0,0.,24.0
1979-08-05 01:01:20.930 ,0,0,2.,24.0,1.,24.0,2.,24.0,0.,24.0
1979-08-05 01:01:44.930 ,1,1,2.,24.0,1.,24.0,0.,24.0,0.,24.0
1979-08-05 01:02:08.930 ,1,0,5.,24.0,0.,24.0,0.,24.0,0.,24.0
1979-08-05 01:02:32.930 ,2,1,0.,24.0,0.,24.0,7.,24.0,0.,24.0
1979-08-05 01:02:56.930 ,2,0,0.,24.0,2.,24.0,3.,24.0,0.,24.0
1979-08-05 01:03:20.930 ,3,1,0.,24.0,1.,24.0,1.,24.0,0.,24.0
1979-08-05 01:03:44.930 ,3,0,0.,24.0,0.,24.0,1.,24.0,0.,24.0
1979-08-05 01:04:08.930 ,4,1,0.,24.0,0.,24.0,0.,24.0,0.,24.0
1979-08-05 01:04:32.930 ,4,0,0.,24.0,0.,24.0,5.,24.0,0.,24.0
1979-08-05 01:04:56.930 ,5,1,1.,24.0,0.,24.0,5.,24.0,0.,24.0
1979-08-05 01:05:20.930 ,5,0,0.,24.0,0.,24.0,4.,24.0,0.,24.0
1979-08-05 01:05:44.930 ,6,1,0.,24.0,1.,24.0,6.,24.0,0.,24.0
1979-08-05 01:06:08.930 ,6,0,0.,24.0,0.,24.0,1.,24.0,0.,24.0
1979-08-05 01:06:32.930 ,7,0,8.,24.0,0.,24.0,3.,24.0,0.,24.0
1979-08-05 01:06:56.930 ,7,0,24.,24.0,0.,24.0,2.,24.0,0.,24.0
1979-08-05 01:07:20.930 ,5,1,14.,24.0,0.,24.0,2.,24.0,0.,24.0
1979-08-05 01:07:44.930 ,1,1,0.,24.0,0.,24.0,3.,24.0,0.,24.0
1979-08-05 01:08:08.930 ,2,1,0.,24.0,1.,24.0,1.,24.0,0.,24.0
1979-08-05 01:08:32.930 ,6,1,0.,24.0,0.,24.0,2.,24.0,0.,24.0
1979-08-05 01:08:56.930 ,5,1,20.,24.0,0.,24.0,1.,24.0,0.,24.0
1979-08-05 01:09:20.930 ,1,1,0.,24.0,1.,24.0,1.,24.0,0.,24.0
1979-08-05 01:09:44.930 ,2,1,1.,24.0,0.,24.0,3.,24.0,0.,24.0
1979-08-05 01:10:08.930 ,6,1,0.,24.0,0.,24.0,4.,24.0,0.,24.0
1979-08-05 01:10:32.930 ,5,1,23.,24.0,0.,24.0,5.,24.0,0.,24.0
1979-08-05 01:10:56.930 ,1,1,0.,24.0,0.,24.0,1.,24.0,0.,24.0
1979-08-05 01:11:20.930 ,2,1,0.,24.0,2.,24.0,2.,24.0,0.,24.0
1979-08-05 01:11:44.930 ,6,1,0.,24.0,0.,24.0,4.,24.0,0.,24.0
1979-08-05 01:12:08.930 ,5,1,11.,24.0,0.,24.0,3.,24.0,0.,24.0
1979-08-05 01:12:32.930 ,1,1,0.,24.0,1.,24.0,3.,24.0,0.,24.0
1979-08-05 01:12:56.930 ,2,1,2.,24.0,2.,24.0,3.,24.0,0.,24.0
1979-08-05 01:13:20.930 ,6,1,0.,24.0,0.,24.0,1.,24.0,0.,24.0
1979-08-05 01:13:44.930 ,5,1,14.,24.0,0.,24.0,1.,24.0,0.,24.0
1979-08-05 01:14:08.930 ,1,1,0.,24.0,0.,24.0,2.,24.0,0.,24.0
1979-08-05 01:14:32.930 ,2,1,2.,24.0,1.,24.0,0.,24.0,0.,24.0
1979-08-05 01:14:56.930 ,6,1,2.,24.0,0.,24.0,4.,24.0,0.,24.0
1979-08-05 01:15:20.930 ,5,1,17.,24.0,0.,24.0,2.,24.0,0.,24.0
1979-08-05 01:15:44.930 ,1,1,0.,24.0,1.,24.0,2.,24.0,0.,24.0
1979-08-05 01:16:08.930 ,2,1,1.,24.0,1.,24.0,2.,24.0,0.,24.0
1979-08-05 01:16:32.930 ,6,1,0.,24.0,0.,24.0,1.,24.0,0.,24.0
1979-08-05 01:16:56.930 ,5,1,21.,24.0,0.,24.0,2.,24.0,0.,24.0
1979-08-05 01:17:20.930 ,1,1,0.,24.0,1.,24.0,1.,24.0,0.,24.0
1979-08-05 01:17:44.930 ,0,0,1.,24.0,0.,24.0,1.,24.0,0.,24.0
1979-08-05 01:18:08.930 ,0,0,0.,24.0,0.,24.0,2.,24.0,0.,24.0
1979-08-05 01:18:32.930 ,5,1,10.,24.0,0.,24.0,3.,24.0,0.,24.0
1979-08-05 01:18:56.930 ,5,0,0.,24.0,0.,24.0,4.,24.0,0.,24.0
1979-08-05 01:19:20.930 ,4,1,1.,24.0,0.,24.0,3.,24.0,0.,24.0
1979-08-05 01:19:44.930 ,4,0,0.,24.0,0.,24.0,3.,24.0,0.,24.0
1979-08-05 01:20:08.930 ,3,1,0.,24.0,0.,24.0,2.,24.0,0.,24.0
1979-08-05 01:20:32.930 ,3,0,0.,24.0,0.,24.0,1.,24.0,0.,24.0
1979-08-05 01:20:56.930 ,2,1,0.,24.0,0.,24.0,4.,24.0,0.,24.0
1979-08-05 01:21:20.930 ,2,0,0.,24.0,0.,24.0,3.,24.0,0.,24.0
1979-08-05 01:21:44.930 ,1,1,0.,24.0,0.,24.0,7.,24.0,0.,24.0
1979-08-05 01:22:08.930 ,1,0,5.,24.0,3.,24.0,1.,24.0,0.,24.0
1979-08-05 01:22:32.930 ,0,1,8.,24.0,1.,24.0,1.,24.0,0.,24.0
1979-08-05 01:22:56.930 ,0,0,7.,24.0,5.,24.0,2.,24.0,0.,24.0
1979-08-05 01:23:20.930 ,0,1,4.,24.0,0.,24.0,0.,24.0,0.,24.0
1979-08-05 01:23:44.930 ,0,0,3.,24.0,0.,24.0,2.,24.0,0.,24.0
1979-08-05 01:24:08.930 ,1,1,9.,24.0,4.,24.0,0.,24.0,0.,24.0
1979-08-05 01:24:32.930 ,1,0,3.,24.0,4.,24.0,0.,24.0,0.,24.0
1979-08-05 01:24:56.930 ,2,1,4.,24.0,2.,24.0,1.,24.0,0.,24.0
1979-08-05 01:25:20.930 ,2,0,1.,24.0,0.,24.0,0.,24.0,0.,24.0
1979-08-05 01:25:44.930 ,3,1,0.,24.0,0.,24.0,2.,24.0,0.,24.0
1979-08-05 01:26:08.930 ,3,0,0.,24.0,0.,24.0,0.,24.0,0.,24.0
1979-08-05 01:26:32.930 ,4,1,0.,24.0,2.,24.0,1.,24.0,0.,24.0
1979-08-05 01:26:56.930 ,4,0,0.,24.0,0.,24.0,2.,24.0,0.,24.0
1979-08-05 01:27:20.930 ,5,1,0.,24.0,0.,24.0,2.,24.0,0.,24.0
1979-08-05 01:27:44.930 ,5,0,1.,24.0,0.,24.0,0.,24.0,0.,24.0
1979-08-05 01:28:08.930 ,6,1,0.,24.0,0.,24.0,1.,24.0,0.,24.0
1979-08-05 01:28:32.930 ,6,0,0.,24.0,0.,24.0,1.,24.0,0.,24.0
1979-08-05 01:28:56.930 ,7,1,9.,24.0,0.,24.0,1.,24.0,0.,24.0
1979-08-05 01:29:20.930 ,7,0,28.,24.0,0.,24.0,2.,24.0,0.,24.0
1979-08-05 01:29:44.930 ,7,1,39.,24.0,0.,24.0,0.,24.0,0.,24.0
1979-08-05 01:30:08.930 ,7,0,29.,24.0,0.,24.0,1.,24.0,0.,24.0
1979-08-05 01:30:32.930 ,6,1,28.,24.0,0.,24.0,0.,24.0,0.,24.0
1979-08-05 01:30:56.930 ,6,0,0.,24.0,0.,24.0,1.,24.0,0.,24.0
1979-08-05 01:31:20.930 ,5,1,1.,24.0,0.,24.0,0.,24.0,0.,24.0
1979-08-05 01:31:44.970 ,0,0,0.,24.0,0.,24.0,0.,24.0,0.,24.0
1979-08-05 01:32:08.970 ,4,1,0.,24.0,0.,24.0,0.,24.0,0.,24.0
1979-08-05 01:32:32.970 ,4,0,0.,24.0,0.,24.0,0.,24.0,0.,24.0
1979-08-05 01:32:56.970 ,3,1,0.,24.0,0.,24.0,0.,24.0,0.,24.0
1979-08-05 01:33:20.970 ,3,0,0.,24.0,0.,24.0,0.,24.0,0.,24.0
1979-08-05 01:33:44.970 ,2,1,0.,24.0,0.,24.0,0.,24.0,0.,24.0
1979-08-05 01:34:08.970 ,2,0,1.,24.0,0.,24.0,0.,24.0,0.,24.0
1979-08-05 01:34:32.970 ,0,0,2.,24.0,0.,24.0,0.,24.0,0.,24.0
1979-08-05 01:34:56.970 ,0,0,2.,24.0,1.,24.0,2.,24.0,0.,24.0
1979-08-05 01:35:20.970 ,0,0,7.,24.0,3.,24.0,0.,24.0,0.,24.0
1979-08-05 01:35:44.970 ,0,0,5.,24.0,2.,24.0,0.,24.0,0.,24.0
1979-08-05 01:36:08.970 ,0,0,5.,24.0,1.,24.0,0.,24.0,0.,24.0
1979-08-05 01:36:32.970 ,0,0,2.,24.0,3.,24.0,0.,24.0,0.,24.0
1979-08-05 01:36:56.970 ,1,1,2.,24.0,3.,24.0,0.,24.0,0.,24.0
1979-08-05 01:37:20.970 ,0,0,2.,24.0,2.,24.0,0.,24.0,0.,24.0
1979-08-05 01:37:44.970 ,2,1,1.,24.0,4.,24.0,0.,24.0,0.,24.0
1979-08-05 01:38:08.970 ,2,0,1.,24.0,0.,24.0,1.,24.0,0.,24.0
1979-08-05 01:38:32.970 ,3,1,0.,24.0,0.,24.0,0.,24.0,0.,24.0
1979-08-05 01:38:56.970 ,3,0,0.,24.0,0.,24.0,0.,24.0,0.,24.0
1979-08-05 01:39:20.970 ,4,1,0.,24.0,0.,24.0,0.,24.0,0.,24.0
1979-08-05 01:39:44.970 ,4,0,0.,24.0,0.,24.0,0.,24.0,0.,24.0
1979-08-05 01:40:08.970 ,5,1,0.,24.0,0.,24.0,0.,24.0,0.,24.0
1979-08-05 01:40:32.970 ,5,0,0.,24.0,0.,24.0,2.,24.0,0.,24.0
1979-08-05 01:40:56.970 ,6,1,0.,24.0,0.,24.0,0.,24.0,0.,24.0
1979-08-05 01:41:20.970 ,6,0,0.,24.0,0.,24.0,0.,24.0,0.,24.0
1979-08-05 01:41:44.970 ,7,1,8.,24.0,0.,24.0,1.,24.0,0.,24.0
1979-08-05 01:42:08.970 ,7,0,25.,24.0,0.,24.0,1.,24.0,0.,24.0
1979-08-05 01:42:32.970 ,7,1,43.,24.0,0.,24.0,1.,24.0,0.,24.0
1979-08-05 01:42:56.970 ,7,0,23.,24.0,0.,24.0,0.,24.0,0.,24.0
1979-08-05 01:43:20.970 ,6,1,16.,24.0,0.,24.0,0.,24.0,0.,24.0
1979-08-05 01:43:44.970 ,6,0,1.,24.0,0.,24.0,0.,24.0,0.,24.0
1979-08-05 01:44:08.970 ,5,1,0.,24.0,0.,24.0,0.,24.0,0.,24.0
1979-08-05 01:44:32.970 ,5,0,0.,24.0,0.,24.0,0.,24.0,0.,24.0
1979-08-05 01:44:56.970 ,4,1,0.,24.0,1.,24.0,0.,24.0,0.,24.0
1979-08-05 01:45:20.970 ,4,0,0.,24.0,0.,24.0,1.,24.0,0.,24.0
1979-08-05 01:45:44.970 ,3,1,0.,24.0,0.,24.0,0.,24.0,0.,24.0
1979-08-05 01:46:08.970 ,3,0,0.,24.0,0.,24.0,1.,24.0,0.,24.0
1979-08-05 01:46:32.970 ,2,1,1.,24.0,0.,24.0,0.,24.0,0.,24.0
1979-08-05 01:46:56.970 ,2,0,0.,24.0,0.,24.0,1.,24.0,0.,24.0
1979-08-05 01:47:20.970 ,1,1,0.,24.0,1.,24.0,0.,24.0,0.,24.0
1979-08-05 01:47:44.970 ,1,0,1.,24.0,1.,24.0,0.,24.0,0.,24.0
1979-08-05 01:48:08.970 ,0,1,1.,24.0,1.,24.0,0.,24.0,0.,24.0
1979-08-05 01:48:32.970 ,0,0,4.,24.0,2.,24.0,0.,24.0,0.,24.0
1979-08-05 01:48:56.970 ,0,1,3.,24.0,4.,24.0,0.,24.0,0.,24.0
1979-08-05 01:49:20.970 ,0,0,4.,24.0,0.,24.0,2.,24.0,0.,24.0
1979-08-05 01:49:44.970 ,1,1,1.,24.0,1.,24.0,0.,24.0,0.,24.0
1979-08-05 01:50:08.970 ,1,0,1.,24.0,1.,24.0,0.,24.0,0.,24.0
1979-08-05 01:50:32.970 ,2,1,0.,24.0,0.,24.0,0.,24.0,0.,24.0
1979-08-05 01:50:56.970 ,2,0,0.,24.0,0.,24.0,0.,24.0,0.,24.0
1979-08-05 01:51:20.970 ,3,1,0.,24.0,0.,24.0,1.,24.0,0.,24.0
1979-08-05 01:51:44.970 ,3,0,0.,24.0,0.,24.0,1.,24.0,0.,24.0
1979-08-05 01:52:08.970 ,4,1,0.,24.0,0.,24.0,1.,24.0,0.,24.0
1979-08-05 01:52:32.970 ,4,0,0.,24.0,0.,24.0,0.,24.0,0.,24.0
1979-08-05 01:52:56.970 ,5,1,0.,24.0,0.,24.0,1.,24.0,0.,24.0
1979-08-05 01:53:20.970 ,5,0,1.,24.0,0.,24.0,0.,24.0,0.,24.0
1979-08-05 01:53:44.970 ,6,1,0.,24.0,0.,24.0,0.,24.0,0.,24.0
1979-08-05 01:54:08.970 ,6,0,0.,24.0,0.,24.0,1.,24.0,0.,24.0
1979-08-05 01:54:32.970 ,7,0,5.,24.0,1.,24.0,2.,24.0,0.,24.0
1979-08-05 01:54:56.970 ,7,0,34.,24.0,0.,24.0,0.,24.0,0.,24.0
1979-08-05 01:55:20.970 ,5,1,13.,24.0,0.,24.0,0.,24.0,0.,24.0
1979-08-05 01:55:44.970 ,1,1,0.,24.0,0.,24.0,0.,24.0,0.,24.0
1979-08-05 01:56:08.970 ,2,1,2.,24.0,0.,24.0,0.,24.0,0.,24.0
1979-08-05 01:56:32.970 ,6,1,0.,24.0,0.,24.0,2.,24.0,0.,24.0
1979-08-05 01:56:56.970 ,5,1,,0,,0,,0,,0
1979-08-05 01:57:20.970 ,1,1,0.,24.0,0.,24.0,0.,24.0,0.,24.0
1979-08-05 01:57:44.970 ,2,1,0.,24.0,0.,24.0,0.,24.0,0.,24.0
1979-08-05 01:58:08.970 ,6,1,0.,24.0,0.,24.0,0.,24.0,0.,24.0
1979-08-05 01:58:32.970 ,5,1,19.,24.0,0.,24.0,0.,24.0,0.,24.0
1979-08-05 01:58:56.970 ,1,1,0.,24.0,0.,24.0,0.,24.0,0.,24.0
1979-08-05 01:59:20.970 ,2,1,0.,24.0,0.,24.0,0.,24.0,0.,24.0
1979-08-05 01:59:44.970 ,6,1,0.,24.0,0.,24.0,0.,24.0,0.,24.0
1979-08-05 02:00:08.970 ,5,1,15.,24.0,0.,24.0,0.,24.0,0.,24.0
1979-08-05 02:00:32.970 ,1,1,0.,24.0,0.,24.0,0.,24.0,0.,24.0
1979-08-05 02:00:56.970 ,2,1,0.,24.0,1.,24.0,2.,24.0,0.,24.0
1979-08-05 02:01:20.970 ,6,1,1.,24.0,0.,24.0,0.,24.0,0.,24.0
1979-08-05 02:01:44.970 ,5,1,16.,24.0,0.,24.0,1.,24.0,0.,24.0
1979-08-05 02:02:08.970 ,1,1,0.,24.0,0.,24.0,0.,24.0,0.,24.0
1979-08-05 02:02:32.970 ,2,1,0.,24.0,0.,24.0,0.,24.0,0.,24.0
1979-08-05 02:02:56.970 ,6,1,0.,24.0,0.,24.0,2.,24.0,0.,24.0
1979-08-05 02:03:20.970 ,5,1,17.,24.0,0.,24.0,0.,24.0,0.,24.0
1979-08-05 02:03:44.970 ,1,1,0.,24.0,0.,24.0,2.,24.0,0.,24.0
1979-08-05 02:04:08.970 ,2,1,1.,24.0,0.,24.0,0.,24.0,0.,24.0
1979-08-05 02:04:32.970 ,6,1,1.,24.0,0.,24.0,0.,24.0,0.,24.0
1979-08-05 02:04:56.970 ,5,1,17.,24.0,0.,24.0,1.,24.0,0.,24.0
1979-08-05 02:05:20.970 ,1,1,0.,24.0,0.,24.0,0.,24.0,0.,24.0
1979-08-05 02:05:44.970 ,0,0,0.,24.0,0.,24.0,0.,24.0,0.,24.0
1979-08-05 02:06:08.970 ,0,0,0.,24.0,0.,24.0,0.,24.0,0.,24.0
1979-08-05 02:06:32.970 ,7,1,14.,24.0,0.,24.0,0.,24.0,0.,24.0
1979-08-05 02:06:56.970 ,7,0,0.,24.0,0.,24.0,0.,24.0,0.,24.0
1979-08-05 02:07:20.970 ,4,1,0.,24.0,0.,24.0,0.,24.0,0.,24.0
1979-08-05 02:07:44.970 ,4,0,0.,24.0,0.,24.0,1.,24.0,0.,24.0
1979-08-05 02:08:08.970 ,3,1,0.,24.0,0.,24.0,0.,24.0,0.,24.0
1979-08-05 02:08:32.970 ,3,0,0.,24.0,0.,24.0,1.,24.0,0.,24.0
1979-08-05 02:08:56.970 ,2,1,0.,24.0,0.,24.0,0.,24.0,0.,24.0
1979-08-05 02:09:20.970 ,2,0,0.,24.0,0.,24.0,0.,24.0,0.,24.0
1979-08-05 02:09:44.970 ,1,1,0.,24.0,0.,24.0,0.,24.0,0.,24.0
1979-08-05 02:10:08.970 ,1,0,0.,24.0,0.,24.0,0.,24.0,0.,24.0
1979-08-05 02:10:32.970 ,0,1,0.,24.0,0.,24.0,0.,24.0,0.,24.0
1979-08-05 02:10:56.970 ,0,0,0.,24.0,1.,24.0,0.,24.0,0.,24.0
1979-08-05 02:11:20.970 ,0,1,0.,24.0,0.,24.0,1.,24.0,0.,24.0
1979-08-05 02:11:44.970 ,0,0,0.,24.0,0.,24.0,0.,24.0,0.,24.0
1979-08-05 02:12:08.970 ,1,1,0.,24.0,0.,24.0,0.,24.0,0.,24.0
1979-08-05 02:12:32.970 ,1,0,0.,24.0,1.,24.0,1.,24.0,0.,24.0
1979-08-05 02:12:56.970 ,2,1,0.,24.0,0.,24.0,0.,24.0,0.,24.0
1979-08-05 02:13:20.970 ,2,0,0.,24.0,0.,24.0,0.,24.0,0.,24.0
1979-08-05 02:13:44.970 ,3,1,0.,24.0,0.,24.0,0.,24.0,0.,24.0
1979-08-05 02:14:08.970 ,3,0,0.,24.0,0.,24.0,1.,24.0,0.,24.0
1979-08-05 02:14:32.970 ,4,1,0.,24.0,0.,24.0,1.,24.0,0.,24.0
1979-08-05 02:14:56.970 ,4,0,0.,24.0,0.,24.0,0.,24.0,0.,24.0
1979-08-05 02:15:20.970 ,5,1,0.,24.0,0.,24.0,1.,24.0,0.,24.0
1979-08-05 02:15:44.970 ,5,0,0.,24.0,0.,24.0,1.,24.0,0.,24.0
1979-08-05 02:16:08.970 ,6,1,0.,24.0,0.,24.0,0.,24.0,0.,24.0
1979-08-05 02:16:32.970 ,6,0,0.,24.0,0.,24.0,0.,24.0,0.,24.0
1979-08-05 02:16:56.970 ,7,1,4.,24.0,0.,24.0,1.,24.0,0.,24.0
1979-08-05 02:17:20.970 ,7,0,36.,24.0,0.,24.0,0.,24.0,0.,24.0
1979-08-05 02:17:44.970 ,7,1,31.,24.0,0.,24.0,0.,24.0,0.,24.0
1979-08-05 02:18:08.970 ,7,0,32.,24.0,0.,24.0,1.,24.0,0.,24.0
1979-08-05 02:18:32.970 ,6,1,27.,24.0,0.,24.0,0.,24.0,0.,24.0
1979-08-05 02:18:56.970 ,6,0,0.,24.0,0.,24.0,0.,24.0,0.,24.0
1979-08-05 02:19:20.970 ,5,1,0.,24.0,0.,24.0,0.,24.0,0.,24.0
1979-08-05 02:19:44.970 ,5,0,0.,24.0,1.,24.0,0.,24.0,0.,24.0
1979-08-05 02:20:08.970 ,4,1,0.,24.0,0.,24.0,0.,24.0,0.,24.0
1979-08-05 02:20:32.970 ,4,0,0.,24.0,0.,24.0,0.,24.0,0.,24.0
1979-08-05 02:20:56.970 ,3,1,0.,24.0,0.,24.0,0.,24.0,0.,24.0
1979-08-05 02:21:20.970 ,3,0,0.,24.0,0.,24.0,0.,24.0,0.,24.0
1979-08-05 02:21:44.970 ,2,1,1.,24.0,0.,24.0,0.,24.0,0.,24.0
1979-08-05 02:22:08.970 ,2,0,0.,24.0,0.,24.0,0.,24.0,0.,24.0
1979-08-05 02:22:32.970 ,1,1,0.,24.0,0.,24.0,0.,24.0,0.,24.0
1979-08-05 02:22:56.970 ,1,0,0.,24.0,0.,24.0,1.,24.0,0.,24.0
1979-08-05 02:23:20.970 ,0,1,0.,24.0,0.,24.0,1.,24.0,0.,24.0
1979-08-05 02:23:44.970 ,0,0,0.,24.0,0.,24.0,0.,24.0,0.,24.0
1979-08-05 02:24:08.970 ,0,1,0.,24.0,0.,24.0,0.,24.0,0.,24.0
1979-08-05 02:24:32.970 ,0,0,0.,24.0,0.,24.0,0.,24.0,0.,24.0
1979-08-05 02:24:56.970 ,1,1,0.,24.0,0.,24.0,0.,24.0,0.,24.0
1979-08-05 02:25:20.970 ,1,0,0.,24.0,0.,24.0,0.,24.0,0.,24.0
1979-08-05 02:25:44.970 ,2,1,0.,24.0,0.,24.0,2.,24.0,0.,24.0
1979-08-05 02:26:08.970 ,2,0,0.,24.0,0.,24.0,0.,24.0,0.,24.0
1979-08-05 02:26:32.970 ,3,1,1.,24.0,0.,24.0,0.,24.0,0.,24.0
1979-08-05 02:26:56.970 ,3,0,0.,24.0,0.,24.0,0.,24.0,0.,24.0
1979-08-05 02:27:20.970 ,4,1,0.,24.0,0.,24.0,0.,24.0,0.,24.0
1979-08-05 02:27:44.970 ,4,0,0.,24.0,0.,24.0,1.,24.0,0.,24.0
1979-08-05 02:28:08.970 ,5,1,0.,24.0,0.,24.0,0.,24.0,0.,24.0
1979-08-05 02:28:32.970 ,5,0,0.,24.0,0.,24.0,0.,24.0,0.,24.0
1979-08-05 02:28:56.970 ,6,1,0.,24.0,0.,24.0,1.,24.0,0.,24.0
1979-08-05 02:29:20.970 ,6,0,0.,24.0,0.,24.0,0.,24.0,0.,24.0
1979-08-05 02:29:44.970 ,7,1,6.,24.0,0.,24.0,0.,24.0,0.,24.0
1979-08-05 02:30:08.970 ,7,0,29.,24.0,0.,24.0,2.,24.0,0.,24.0
1979-08-05 02:30:32.970 ,7,1,27.,24.0,0.,24.0,1.,24.0,0.,24.0
1979-08-05 02:30:56.970 ,0,0,38.,24.0,0.,24.0,0.,24.0,0.,24.0
1979-08-05 02:31:20.970 ,6,1,16.,24.0,0.,24.0,0.,24.0,0.,24.0
1979-08-05 02:31:44.970 ,6,0,0.,24.0,0.,24.0,0.,24.0,0.,24.0
1979-08-05 02:32:08.970 ,5,1,0.,24.0,0.,24.0,1.,24.0,0.,24.0
1979-08-05 02:32:32.970 ,5,0,0.,24.0,0.,24.0,0.,24.0,0.,24.0
1979-08-05 02:32:56.970 ,4,1,0.,24.0,0.,24.0,0.,24.0,0.,24.0
1979-08-05 02:33:20.970 ,4,0,0.,24.0,0.,24.0,0.,24.0,0.,24.0
1979-08-05 02:33:44.970 ,3,1,0.,24.0,0.,24.0,1.,24.0,0.,24.0
1979-08-05 02:34:08.970 ,3,0,0.,24.0,0.,24.0,1.,24.0,0.,24.0